Regional Weather Roundup
Issued by NWS Grand Forks, ND

Home | Current Version | Previous Version | Graphics & Text | Print | Product List | Glossary On
Versions: 1 2 3 4 5 6 7 8 9 10 11 12 13 14 15 16 17 18 19 20 21 22 23 24 25 26 27 28 29 30 31 32 33 34 35 36 37 38 39 40 41 42 43 44 45 46 47 48 49 50
000
ASUS43 KFGF 251031
RWRFGF
PRAIRIE TO PINES  WEATHER ROUNDUP
NATIONAL WEATHER SERVICE EASTERN NORTH DAKOTA/GRAND FORKS ND
500 AM CDT MON MAY 25 2015

 **SATELLITE DATA USED TO AUGMENT SKY COVER AT AUTOMATED STATIONS**
 *****  WEATHER ACROSS EASTERN NORTH DAKOTA  *****

CITY           SKY/WX    TMP DP  RH WIND       PRES   REMARKS
GRAND FORKS    CLOUDY    55  51  86 CALM      29.81F
GRAND FRKS AFB CLOUDY    53  51  91 CALM      29.81F
GRAND FRKS NWS   N/A     54 N/A N/A MISG        N/A
DEVILS LAKE    CLOUDY    55  48  76 CALM      29.82F
FARGO          LGT RAIN  58  56  93 N9        29.79F FOG
WAHPETON ARPT  CLOUDY    55  54  94 N14       29.74F
$$

 ***** WEATHER ACROSS CENTRAL AND WESTERN NORTH DAKOTA  *****

CITY           SKY/WX    TMP DP  RH WIND       PRES   REMARKS
BISMARCK       LGT RAIN  56  54  93 NE5       29.84F
MINOT          CLOUDY    54  47  77 SW5       29.85S
JAMESTOWN      LGT RAIN  56  55  97 N7        29.82F FOG
MINOT AFB      CLOUDY    53  53 100 N6        29.84F
GARRISON         N/A     55  51  86 SW3       29.86S
WILLISTON      PTCLDY    47  42  83 NE5       29.88S
DICKINSON      CLOUDY    54  49  83 NE8       29.85F
HETTINGER      LGT RAIN  53  51  93 N8        29.85S FOG
$$

 *****  OTHER AIRPORT OBSERVATIONS IN OUR AREA  *****

CITY           SKY/WX    TMP DP  RH WIND       PRES   REMARKS
WALHALLA         N/A     52  48  87 W3        29.82F
GRAFTON AIRPOR FAIR      52  52 100 SW5       29.82S
VALLEY CITY AR LGT RAIN  55  55 100 N5        29.83S
CANDO          FAIR      54  48  82 N9        29.84F
CAVALIER APRT  FAIR      57  46  67 NW8       29.81F
GWINNER        NOT AVBL
SHEYENNE NWR     N/A     57  56  97 N8        29.95S
ROLLA          FAIR      55  48  76 NW10      29.87S
 ***** THE ABOVE OBSERVATIONS ARE NON NWS ARE NOT QUALITY
       CONTROLLED AND MAY MIS-REPORT RAIN FOR SNOW...
$$

  *****  WEATHER ACROSS NORTHERN MINNESOTA  *****

CITY           SKY/WX    TMP DP  RH WIND       PRES   REMARKS
FLAG ISLAND    CLOUDY    63  48  59 N12       29.80F
WARROAD        CLOUDY    52  48  87 CALM      29.81F
ROSEAU         CLOUDY    55  48  76 CALM      29.81F
HALLOCK        CLOUDY    54  50  87 CALM      29.79F
THF RVR FALLS  CLOUDY    55  52  88 CALM      29.82F
BAUDETTE       CLOUDY    52  50  93 CALM      29.80F
WASKISH        CLOUDY    55  52  88 CALM      29.81F
CROOKSTON      CLOUDY    57  52  82 CALM      29.82F
STEPHEN NDAWN    N/A     55  52  88 SW3         N/A
GREENBUSH NDAW   N/A     54  54 100 S2          N/A
$$
  *****  WEATHER ACROSS CENTRAL AND WEST MINNESOTA  *****

CITY           SKY/WX    TMP DP  RH WIND       PRES   REMARKS
FOSSTON        DRIZZLE   54  48  82 CALM      29.82F
BEMIDJI        LGT RAIN  55  54  97 N3        29.82F
PARK RAPIDS    RAIN      58  55  90 NE12      29.77F FOG
ELBOW LAKE     LGT RAIN  56  56  98 NE8       29.72F
WADENA         RAIN      55  55 100 NE10      29.72F
DETROIT LAKES  LGT RAIN  55  54  94 NE12      29.78F
MOORHEAD       LGT RAIN  57  55  94 N12       29.79F
FERGUS FALLS   LGT RAIN  57  57 100 NE12      29.74F
MORRIS MN      RAIN      57  57 100 N7        29.70F
STAPLES        RAIN      55  55 100 NE6       29.72F
$$
  *****  WEATHER ELSEWHERE ACROSS MINNESOTA  *****

CITY           SKY/WX    TMP DP  RH WIND       PRES   REMARKS
DULUTH         LGT RAIN  58  55  90 NE15      29.76F
INTRNTL FALLS  CLOUDY    52  49  89 CALM      29.82S
ELY            RAIN      54  52  94 CALM      29.83F
CLOQUET        RAIN      57  55  94 E13       29.74F
WHEATON        LGT RAIN  55  54  94 N8        29.74F
BRAINERD       RAIN      57  56  96 NE8       29.72S FOG
HIBBING        RAIN      56  54  93 NE7       29.81F
ALEXANDRIA     LGT RAIN  57  57 100 NE8       29.71F FOG
SAINT CLOUD    LGT RAIN  57  56  96 NE8       29.68F FOG
MINNEAPOLIS    CLOUDY    58  57  97 E9        29.67F
$$

  *****  WEATHER ACROSS SOUTH DAKOTA  *****

CITY           SKY/WX    TMP DP  RH WIND       PRES   REMARKS
SIOUX FALLS    CLOUDY    59  57  93 W5        29.72F
BROOKINGS      CLOUDY    57  55  94 NW6       29.73F
WATERTOWN      LGT RAIN  56  55  97 NW6       29.73S
HURON          CLOUDY    57  57 100 N6        29.74F FOG
SISSETON         N/A     57  57 100 N12       29.73F
ABERDEEN       LGT RAIN  57  55  93 NE10      29.77S
MITCHELL       CLOUDY    58  58 100 N5        29.73F FOG
PIERRE         FOG       57  56  96 NE6       29.74F VSB 3/4
MOBRIDGE       LGT RAIN  57  57 100 NE5       29.79R
RAPID CITY     CLOUDY    50  49  96 N5        29.82S
$$

  *****  SOME WEATHER IN NEARBY STATES *****

CITY           SKY/WX    TMP DP  RH WIND       PRES   REMARKS
GLASGOW MT     CLEAR     49  42  77 E5        29.89S
GREAT FALLS MT CLEAR     44  40  85 E3        29.93S
CHEYENNE WY    LGT RAIN  44  41  89 NW9       29.87F
SCOTTSBLUFF NE CLOUDY    51  51 100 NW9       29.81F
OMAHA NE       CLOUDY    62  60  93 SE7       29.76S
DES MOINES IA  LGT RAIN  64  61  90 SW10      29.77R
DAVENPORT IA   CLOUDY    65  63  93 W13       29.77R
CHICAGO IL     CLOUDY    70  62  76 S20G29    29.83F
EAU CLAIRE WI  CLOUDY    57  56  96 CALM      29.70F FOG
LA CROSSE WI   CLOUDY    63  61  93 SE3       29.69F FOG
$$

  *****  SOME NATIONAL WEATHER *****

CITY           SKY/WX    TMP DP  RH WIND       PRES   REMARKS
LA GUARDIA NY  MOCLDY    65  53  65 S7        30.26S
RALEIGH NC     PTCLDY    58  55  90 CALM      30.34R
ATLANTA GA     MOCLDY    66  61  82 SE9       30.26S
NEW ORLEANS LA CLOUDY    77  72  84 SE9       30.02R
OKLAHOMA CITY  CLOUDY    66  65  96 S13       29.84S
ALBUQUERQUE NM PTCLDY    51  47  86 CALM      29.99R
SALT LAKE CITY MOCLDY    52  47  83 S6        29.92S
LOS ANGELES CA PTCLDY    58  54  86 CALM      29.96F
BOISE ID       CLEAR     54  46  74 CALM      29.87S
SEATTLE WA     CLOUDY    52  48  86 SW6       30.01F
$$

*** WEATHER ACROSS MANITOBA...SASKATCHEWAN AND ONTARIO ***
                ***ONTARIO***

CITY           SKY/WX    TMP DP  RH WIND       PRES   REMARKS
GERALDTON      PTCLDY    45  43  93 CALM      29.90S
THUNDER BAY    CLOUDY    48  41  76 N3        29.87F
SIOUX LOOKOUT  MOCLDY    45  43  93 CALM      29.85S
TORONTO        MOCLDY    63  52  67 E8        30.11
BIG TROUT LK   CLEAR     37  32  81 E6        29.94S
PICKLE LAKE    NOT AVBL
DRYDEN         MOCLDY    54  48  82 NE6       29.83F
KENORA         MOCLDY    59  41  51 N7        29.84F
$$
                *** MANITOBA***

CITY           SKY/WX    TMP DP  RH WIND       PRES   REMARKS
BRANDON        PTCLDY    50  43  76 NW7       29.86F
DAUPHIN        CLEAR     57  43  58 W8        29.83F
ISLAND LAKE    CLEAR     45  39  81 E3        29.87S
PILOT MOUND      N/A     54  46  76 N8          N/A
THE PAS        PTCLDY    45  41  87 CALM      29.85S
THOMPSON       CLEAR     41  36  81 E5        29.88F
WINNIPEG       PTCLDY    52  43  71 NE8       29.84S
LYNN LAKE      CLEAR     36  30  80 NE5       29.86S
CHURCHILL      PTCLDY    27  25  93 SW6       29.98S WCI  20
GILLAM         CLEAR     28  27  93 E3        29.97
$$
                ***SASKATCHEWAN***

CITY           SKY/WX    TMP DP  RH WIND       PRES   REMARKS
ESTEVAN        PTCLDY    46  43  87 N6        29.89S
KINDERSLEY     PTCLDY    55  28  35 SE5       29.89F
LLOYDMINSTER   CLOUDY    55  37  50 W6        29.88S
PRINCE ALBERT  PTCLDY    45  45 100 S3        29.86S
REGINA         PTCLDY    48  39  71 S6        29.88F
YORKTON        CLEAR     48  45  87 NW5       29.86R
N. BATTLEFORD  CLEAR     48  41  76 NE6       29.89F
LA RONGE       PTCLDY    43  34  70 S3        29.83S
SASKATOON      PTCLDY    46  41  81 NE5       29.88F
SWIFT CURRENT  PTCLDY    54  34  47 W5        29.90S
$$
NOTE: THESE ARE AUTOMATED STATIONS WITH LIMITED QUALITY CONTROL
      "FAIR" INDICATES FEW OR NO CLOUDS BELOW 12,000 FEET WITH NO
      SIGNIFICANT WEATHER AND/OR OBSTRUCTIONS TO VISIBILITY.
      SKY/WX - SKY CONDITION AND SIGNIFICANT WEATHER.
      TMP - AIR TEMPERATURE.    DP   - DEWPOINT TEMPERATURE.
      RH  - RELATIVE HUMIDITY.  PRES - PRESSURE.
      HX  - HEAT INDEX.         WCI  - WIND CHILL INDEX.
$


USA.gov is the U.S. government's official web portal to all federal, state and local government web resources and services.